Regional Weather Roundup
Issued by NWS

Home | Current Version | Previous Version | Text Only | Print | Product List | Glossary On
Versions: 1 2 3 4 5 6 7 8 9 10 11 12 13 14 15 16 17 18 19 20 21 22 23 24 25 26 27 28 29 30 31 32 33 34 35 36 37 38 39 40 41 42 43 44 45 46 47 48 49 50
056
ASUS43 KMPX 241410
RWRMN
WEATHER ROUNDUP FOR MINNESOTA
NATIONAL WEATHER SERVICE TWIN CITIES/CHANHASSEN MN
900 AM CDT TUE MAY 24 2016


NOTE: "FAIR" INDICATES FEW OR NO CLOUDS BELOW 12,000 FEET WITH NO
SIGNIFICANT WEATHER AND/OR OBSTRUCTIONS TO VISIBILITY. N/A MEANS
CURRENT SKY AND/OR WEATHER CONDITIONS ARE NOT AVAILABLE.

MNZ060>063-068>070-241500-
   Twin Cities Metro

CITY           SKY/WX    TMP DP  RH WIND       PRES   REMARKS
TWIN CITIES    PTSUNNY   71  61  70 W10       29.86R
ST PAUL        MOSUNNY   71  62  73 W9        29.86R
CRYSTAL        SUNNY     69  61  75 SW9       29.85R
BLAINE         PTSUNNY   70  66  88 SW9       29.86R
EDEN PRAIRIE   CLOUDY    71  62  73 SW14      29.85R
SOUTH ST PAUL  CLOUDY    71  62  71 W9        29.85S
LAKE ELMO      FAIR      70  63  78 W13       29.87R
$$
MNZ001>005-007-008-013>017-022>024-027-028-241500-
   Northwest Minnesota

CITY           SKY/WX    TMP DP  RH WIND       PRES   REMARKS
BEMIDJI        PTSUNNY   63  51  65 NW10      29.86R
HALLOCK        CLOUDY    61  55  82 N5        29.83R
ROSEAU         CLOUDY    63  54  72 CALM      29.84R
WARROAD        CLOUDY    63  52  67 W7        29.84R
THIEF RVR FALL CLOUDY    61  48  63 NW9       29.83R
CROOKSTON      CLOUDY    63  55  77 E5        29.82R
FOSSTON        TSTM      55  50  82 NE8       29.85S
DETROIT LAKES  MOSUNNY   63  52  67 NE5       29.88R
MOORHEAD       LGT RAIN  66  52  59 SE13      29.83S
PARK RAPIDS    SUNNY     65  54  67 NW5       29.86S
MAHNOMEN       CLOUDY    57  53  84 E9        29.85S THUNDER
$$
MNZ006-009>011-018-025>026-241500-
   North Central Minnesota

CITY           SKY/WX    TMP DP  RH WIND       PRES   REMARKS
BAUDETTE       PTSUNNY   63  50  62 CALM      29.81R
FLAG ISLAND    CLOUDY    63  54  72 SE5       29.80S
INTL FALLS     CLOUDY    63  59  87 SW3       29.83R
WASKISH        CLOUDY    63  54  72 SW12      29.85R
BIG FORK       CLOUDY    63  54  72 CALM      29.85R
LONGVILLE      MOSUNNY   61  57  88 NW3       29.84R
CRANE LAKE     CLOUDY    61  57  88 CALM      29.87R
ORR            RAIN      61  52  72 S3G17     29.82R
COOK           CLOUDY    63  59  88 CALM      29.85F
WALKER         FAIR      59  54  84 W3        29.85S
$$
MNZ012-019>021-037-241500-
   Northeast Minnesota

CITY           SKY/WX    TMP DP  RH WIND       PRES   REMARKS
DULUTH         PTSUNNY   60  58  92 NE5       29.85F
ELY            LGT RAIN  57  55  94 CALM      29.84F
HIBBING        CLOUDY    62  56  80 SE6       29.84F
EVELETH        PTSUNNY   63  55  77 N3        29.86R
DULUTH HARBOR  FOG       55  55 100 NE6       29.85S VSB 3/4
TWO HARBORS    RAIN      63  57  82 N3        29.85F
SILVER BAY     RAIN      61  59  94 S9        29.87R
GRAND MARAIS     N/A     48  46  93 N3        29.86R
G MARAIS ARPRT MOSUNNY   63  55  77 CALM      29.88F
$$
MNZ029>031-032-039>041-046>048-054>057-064-241500-
   West Central Minnesota

CITY           SKY/WX    TMP DP  RH WIND       PRES   REMARKS
FERGUS FALLS   SUNNY     66  52  59 E12G18    29.82R
WHEATON        SUNNY     70  61  73 NE14      29.85R
MORRIS         SUNNY     70  57  64 E10       29.83R
ALEXANDRIA     LGT RAIN  66  58  75 E10       29.86S
ELBOW LAKE     PTSUNNY   65  60  85 NE14G22   29.84S
WADENA         SUNNY     64  52  63 SE7       29.85F
GLENWOOD       SUNNY     66  61  82 NE7       29.87R
APPLETON       SUNNY     68  57  68 SE6       29.84R
BENSON         SUNNY     68  57  68 SE3       29.85S
ORTONVILLE     SUNNY     66  54  63 E3        29.85R
MADISON        SUNNY     66  57  72 CALM      29.85S
WILLMAR        FOG       63  63 100 SW6       29.88S VSB 1/4
$$
MNZ033>034-036-042>043-049>051-058-059-241500-
   Central Minnesota

CITY           SKY/WX    TMP DP  RH WIND       PRES   REMARKS
ST CLOUD       PTSUNNY   66  62  87 NW9       29.87
SAUK CENTRE    CLOUDY    60  60  99 E3        29.88R FOG
PAYNESVILLE    CLOUDY    62  62 100 SW5       29.89R FOG
AITKIN         SUNNY     70  54  56 E8        29.83R
PINE RIVER     SUNNY     66  54  63 CALM      29.88R
BRAINERD       MOSUNNY   65  57  75 E3        29.84S
STAPLES        MOSUNNY   64  52  63 CALM      29.86R
LONG PRAIRIE   PTSUNNY   63  59  88 NE7       29.88R
LITTLE FALLS   PTSUNNY   63  59  88 S3        29.87R
LITCHFIELD     FOG       63  63 100 SW5       29.88R VSB 3/4
BUFFALO        CLOUDY    65  61  88 SW7       29.88R FOG
MAPLE LAKE     CLOUDY    65  64  97 SW3       29.87R FOG
HUTCHINSON     CLOUDY    66  64  94 SW6       29.88R FOG
$$
MNZ037-044-045-052-053-241500-
   East Central Minnesota

CITY           SKY/WX    TMP DP  RH WIND       PRES   REMARKS
PRINCETON      CLOUDY    66  64  94 W8        29.87R
MORA           CLOUDY    63  61  94 CALM      29.87R FOG
CAMBRIDGE      CLOUDY    70  59  68 W6        29.85R
RUSH CITY      CLOUDY    64  62  93 W3        29.86R
MOOSE LAKE     CLOUDY    63  59  88 N3        29.83S
HINCKLEY       CLOUDY    64  63  94 CALM      29.84S
CLOQUET        MOSUNNY   63  61  94 E7        29.85S
MCGREGOR       PTSUNNY   63  59  88 NE5       29.85S
$$
MNZ071>073-080-081-089-090-097-098-241500-
   Southwest Minnesota

CITY           SKY/WX    TMP DP  RH WIND       PRES   REMARKS
MONTEVIDEO     CLOUDY    64  64 100 SW3       29.88S FOG
GRANITE FALLS  CLOUDY    67  64  91 S5        29.88F
CANBY          MOSUNNY   70  63  80 NW5       29.87F
MARSHALL       CLOUDY    66  62  87 NW13      29.87R
REDWOOD FALLS  CLOUDY    68  62  81 SW9       29.86R
OLIVIA         CLOUDY    61  59  94 SW7       29.86S FOG
PIPESTONE      CLOUDY    64  63  94 S8        29.87S FOG
WINDOM         CLOUDY    66  61  82 SW6       29.87F
WORTHINGTON    CLOUDY    64  61  90 S14       29.89F
JACKSON        CLOUDY    68  59  73 SW10      29.88F
TRACY          CLOUDY    70  63  78 SW15      29.86F
SLAYTON        CLOUDY    65  63  93 S7        29.88F
$$
MNZ065>067-074>077-082>085-091>093-241500-
   South Central Minnesota

CITY           SKY/WX    TMP DP  RH WIND       PRES   REMARKS
MANKATO        CLOUDY    68  57  68 W15       29.89R
NEW ULM        MOSUNNY   70  63  78 SW12      29.86F
ST JAMES       CLOUDY    64  57  77 SW10G16   29.87F
FAIRMONT       MOSUNNY   66  59  77 SW10      29.88F
GLENCOE        CLOUDY    68  64  88 SW8       29.86R
FARIBAULT      CLOUDY    68  61  77 SW8       29.89R
OWATONNA       CLOUDY    70  59  68 SW16      29.89S
WASECA         CLOUDY    70  59  68 SW14      29.90S
ALBERT LEA     CLOUDY    66  61  82 SW5       29.90R
$$
MNZ078>079-086>088-094>096-241500-
   Southeast Minnesota

CITY           SKY/WX    TMP DP  RH WIND       PRES   REMARKS
ROCHESTER      CLOUDY    66  62  87 SW9       29.90R
RED WING       MOSUNNY   68  63  83 W5        29.85S
STANTON        CLOUDY    71  60  68 W12G18    29.86R
DODGE CENTER   CLOUDY    70  59  68 W14       29.89R
WINONA         CLOUDY    70  61  73 CALM      29.89R
AUSTIN         MOSUNNY   68  61  77 SW7       29.91R
PRESTON        CLOUDY    65  60  84 SW7       29.92R
$$
ABBREVIATIONS USED IN REMARKS
   TC - TEMPERATURES IN CELSIUS
  WCI - WIND CHILL INDEX
   HX - HEAT INDEX
  VSB - VISIBILITY
$$




USA.gov is the U.S. government's official web portal to all federal, state and local government web resources and services.